When you browse on this site, cookies collect data to enhance your experience and personalize the content and advertising you see.
Visit our Privacy Policy to learn more. By continuing to use the site, you agree to this use of cookies and data.
  • In Latvia
  • List of Countries
  • For 7 days
  • Water Temperature
  • Satellite Maps
  • Weather Map
  • Weather Widgets
  • user-avatar
    Login

    Hourly Weather Charlotte

    Today, 17 July, Wednesday

    Time Temperature Precipitation Wind Pressure Humidity
    00:00 +28°C° 0 mm 2 mps 745 mmHg 71%
    01:00 +28°C° 0 mm 1 mps 745 mmHg 73%
    02:00 +27°C° 0 mm 1 mps 744 mmHg 75%
    03:00 +27°C° 0 mm 2 mps 744 mmHg 77%
    04:00 +26°C° 0 mm 2 mps 744 mmHg 79%
    05:00 +27°C° 0 mm 2 mps 744 mmHg 78%
    06:00 +27°C° 0 mm 2 mps 744 mmHg 76%
    07:00 +28°C° 0 mm 1 mps 745 mmHg 71%
    08:00 +30°C° 0 mm 2 mps 745 mmHg 63%
    09:00 +33°C° 0 mm 3 mps 745 mmHg 56%
    10:00 +35°C° 0 mm 3 mps 744 mmHg 48%
    11:00 +36°C° 0 mm 4 mps 744 mmHg 44%
    12:00 +37°C° 0 mm 4 mps 744 mmHg 41%
    13:00 +39°C° 0 mm 5 mps 744 mmHg 37%
    14:00 +39°C° 0 mm 5 mps 743 mmHg 37%
    15:00 +39°C° 0 mm 5 mps 743 mmHg 37%
    16:00 +39°C° 0 mm 5 mps 742 mmHg 37%
    17:00 +36°C° 0.1 mm 5 mps 742 mmHg 45%
    18:00 +34°C° 0.1 mm 4 mps 742 mmHg 54%
    19:00 +31°C° 0.1 mm 3 mps 742 mmHg 62%
    20:00 +30°C° 0.5 mm 3 mps 742 mmHg 67%
    21:00 +28°C° 0.5 mm 3 mps 742 mmHg 72%
    22:00 +27°C° 0.5 mm 3 mps 742 mmHg 76%
    23:00 +27°C° 0.1 mm 3 mps 742 mmHg 78%

    Tomorrow, 18 July, Thursday

    Time Temperature Precipitation Wind Pressure Humidity
    00:00 +26°C° 0.1 mm 2 mps 742 mmHg 80%
    01:00 +26°C° 0.1 mm 2 mps 742 mmHg 82%
    02:00 +25°C° 0 mm 2 mps 742 mmHg 83%
    03:00 +25°C° 0 mm 2 mps 742 mmHg 84%
    04:00 +25°C° 0 mm 1 mps 742 mmHg 85%
    05:00 +26°C° 0 mm 1 mps 742 mmHg 84%
    06:00 +26°C° 0 mm 1 mps 742 mmHg 82%
    07:00 +26°C° 0 mm 1 mps 742 mmHg 81%
    08:00 +29°C° 0 mm 1 mps 742 mmHg 72%
    09:00 +31°C° 0 mm 1 mps 743 mmHg 62%
    10:00 +33°C° 0 mm 1 mps 743 mmHg 53%
    11:00 +35°C° 0 mm 2 mps 742 mmHg 49%
    12:00 +37°C° 0 mm 2 mps 742 mmHg 45%
    13:00 +38°C° 0 mm 2 mps 742 mmHg 40%
    14:00 +38°C° 0 mm 2 mps 741 mmHg 42%
    15:00 +37°C° 0 mm 2 mps 741 mmHg 43%
    16:00 +37°C° 0 mm 2 mps 741 mmHg 44%
    17:00 +36°C° 0 mm 2 mps 741 mmHg 49%
    18:00 +35°C° 0 mm 2 mps 741 mmHg 53%
    19:00 +32°C° 0 mm 2 mps 741 mmHg 58%
    20:00 +31°C° 0.4 mm 2 mps 741 mmHg 65%
    21:00 +29°C° 0.4 mm 2 mps 741 mmHg 72%
    22:00 +27°C° 0.4 mm 2 mps 742 mmHg 80%
    23:00 +27°C° 0.3 mm 2 mps 742 mmHg 82%

    Day after tomorrow, 19 July, Friday

    Time Temperature Precipitation Wind Pressure Humidity
    00:00 +26°C° 0.3 mm 2 mps 742 mmHg 85%
    01:00 +26°C° 0.3 mm 2 mps 742 mmHg 87%
    02:00 +25°C° 0 mm 1 mps 742 mmHg 88%
    03:00 +25°C° 0 mm 1 mps 741 mmHg 88%
    04:00 +25°C° 0 mm 1 mps 741 mmHg 88%
    05:00 +26°C° 0 mm 1 mps 742 mmHg 86%
    06:00 +26°C° 0 mm 1 mps 742 mmHg 84%
    07:00 +27°C° 0 mm 1 mps 743 mmHg 82%
    08:00 +30°C° 0 mm 1 mps 743 mmHg 73%
    09:00 +32°C° 0 mm 1 mps 743 mmHg 63%
    10:00 +35°C° 0 mm 1 mps 743 mmHg 54%
    11:00 +36°C° 0.2 mm 1 mps 743 mmHg 51%
    12:00 +36°C° 0.2 mm 1 mps 743 mmHg 47%
    13:00 +37°C° 0.2 mm 1 mps 743 mmHg 44%
    14:00 +36°C° 0.5 mm 1 mps 742 mmHg 49%
    15:00 +35°C° 0.5 mm 1 mps 742 mmHg 53%
    16:00 +34°C° 0.5 mm 2 mps 742 mmHg 58%
    17:00 +31°C° 2.6 mm 2 mps 742 mmHg 64%
    18:00 +29°C° 2.6 mm 2 mps 742 mmHg 70%
    19:00 +28°C° 2.6 mm 1 mps 742 mmHg 75%
    20:00 +27°C° 0.4 mm 2 mps 742 mmHg 79%
    21:00 +26°C° 0.4 mm 3 mps 742 mmHg 83%
    22:00 +26°C° 0.4 mm 3 mps 743 mmHg 86%
    23:00 +25°C° 0.1 mm 3 mps 743 mmHg 88%

    20 July, Saturday

    Time Temperature Precipitation Wind Pressure Humidity
    00:00 +25°C° 0.1 mm 3 mps 743 mmHg 90%
    01:00 +25°C° 0.1 mm 2 mps 743 mmHg 92%
    02:00 +25°C° 0 mm 2 mps 742 mmHg 93%
    03:00 +25°C° 0 mm 2 mps 742 mmHg 93%
    04:00 +25°C° 0 mm 1 mps 742 mmHg 94%
    05:00 +25°C° 0 mm 1 mps 742 mmHg 93%
    06:00 +25°C° 0 mm 2 mps 743 mmHg 92%
    07:00 +26°C° 0 mm 2 mps 743 mmHg 91%
    08:00 +28°C° 0 mm 2 mps 743 mmHg 82%
    09:00 +30°C° 0 mm 2 mps 743 mmHg 73%
    10:00 +32°C° 0 mm 2 mps 743 mmHg 64%
    11:00 +34°C° 0 mm 3 mps 743 mmHg 59%
    12:00 +35°C° 0 mm 3 mps 743 mmHg 54%
    13:00 +36°C° 0 mm 3 mps 743 mmHg 49%
    14:00 +36°C° 0.2 mm 4 mps 742 mmHg 50%
    15:00 +36°C° 0.2 mm 4 mps 742 mmHg 51%
    16:00 +36°C° 0.2 mm 4 mps 742 mmHg 52%
    17:00 +34°C° 0.1 mm 4 mps 742 mmHg 57%
    18:00 +33°C° 0.1 mm 3 mps 742 mmHg 62%
    19:00 +30°C° 0.1 mm 3 mps 742 mmHg 67%
    20:00 +30°C° 0 mm 3 mps 742 mmHg 69%
    21:00 +29°C° 0 mm 2 mps 742 mmHg 71%
    22:00 +28°C° 0 mm 2 mps 743 mmHg 74%
    23:00 +28°C° 0 mm 2 mps 742 mmHg 76%

    21 July, Sunday

    Time Temperature Precipitation Wind Pressure Humidity
    00:00 +27°C° 0 mm 2 mps 742 mmHg 77%
    01:00 +27°C° 0 mm 2 mps 742 mmHg 79%
    02:00 +26°C° 0 mm 2 mps 742 mmHg 80%
    03:00 +26°C° 0 mm 2 mps 742 mmHg 81%
    04:00 +26°C° 0 mm 2 mps 742 mmHg 82%
    05:00 +26°C° 0 mm 3 mps 742 mmHg 81%
    06:00 +26°C° 0 mm 3 mps 742 mmHg 79%
    07:00 +27°C° 0 mm 3 mps 742 mmHg 78%
    08:00 +28°C° 0 mm 3 mps 743 mmHg 71%
    09:00 +30°C° 0 mm 4 mps 743 mmHg 64%
    10:00 +33°C° 0 mm 4 mps 743 mmHg 57%
    11:00 +34°C° 0 mm 5 mps 742 mmHg 53%
    12:00 +35°C° 0 mm 5 mps 742 mmHg 49%
    13:00 +37°C° 0 mm 5 mps 742 mmHg 44%
    14:00 +37°C° 0 mm 5 mps 742 mmHg 44%
    15:00 +37°C° 0 mm 5 mps 741 mmHg 43%
    16:00 +37°C° 0 mm 5 mps 741 mmHg 42%
    17:00 +36°C° 0 mm 5 mps 741 mmHg 47%
    18:00 +34°C° 0 mm 4 mps 741 mmHg 53%
    19:00 +33°C° 0 mm 3 mps 741 mmHg 58%
    20:00 +31°C° 0.1 mm 3 mps 741 mmHg 60%
    21:00 +30°C° 0.1 mm 3 mps 741 mmHg 62%
    22:00 +29°C° 0.1 mm 3 mps 742 mmHg 65%
    23:00 +29°C° 0 mm 3 mps 741 mmHg 66%

    22 July, Monday

    Time Temperature Precipitation Wind Pressure Humidity
    00:00 +28°C° 0 mm 3 mps 741 mmHg 68%
    01:00 +28°C° 0 mm 3 mps 741 mmHg 69%
    02:00 +28°C° 0 mm 3 mps 741 mmHg 71%
    03:00 +27°C° 0 mm 3 mps 741 mmHg 73%
    04:00 +26°C° 0 mm 2 mps 741 mmHg 75%
    05:00 +27°C° 0 mm 2 mps 741 mmHg 75%
    06:00 +27°C° 0 mm 2 mps 741 mmHg 75%
    07:00 +27°C° 0 mm 2 mps 741 mmHg 75%
    08:00 +29°C° 0 mm 2 mps 741 mmHg 69%
    09:00 +30°C° 0 mm 3 mps 742 mmHg 63%
    10:00 +33°C° 0 mm 3 mps 742 mmHg 57%
    11:00 +35°C° 0 mm 3 mps 742 mmHg 52%
    12:00 +36°C° 0 mm 3 mps 741 mmHg 47%
    13:00 +37°C° 0 mm 3 mps 741 mmHg 42%
    14:00 +37°C° 0 mm 3 mps 741 mmHg 44%
    15:00 +36°C° 0 mm 4 mps 740 mmHg 46%
    16:00 +36°C° 0 mm 4 mps 740 mmHg 47%
    17:00 +34°C° 1.5 mm 3 mps 740 mmHg 57%
    18:00 +30°C° 1.5 mm 2 mps 740 mmHg 67%
    19:00 +28°C° 1.5 mm 2 mps 740 mmHg 76%
    20:00 +28°C° 0.2 mm 2 mps 740 mmHg 76%
    21:00 +27°C° 0.2 mm 2 mps 740 mmHg 77%
    22:00 +27°C° 0.2 mm 2 mps 741 mmHg 77%
    23:00 +26°C° 0 mm 2 mps 741 mmHg 78%
    Show more